Flag for Canada Weather past 2 weeks in Kelowna, British Columbia, Canada

Now
73 °F

Sunny.


Feels Like: 77 °F
Forecast: 48 / 83 °F
Wind: 6 mph from North

Location: Kelowna Airport

Current Time: May 22, 2015 at 11:44:48 AM

Latest Report: May 22, 2015 at 11:00 AM


Visibility: 9 mi

Pressure: 29.83 "Hg

Humidity: 36%

Dew point: 45 °F

Location of KelownaLocation

Historic Weather in Kelowna — Graph

°F

Kelowna temperature yesterday

Maximum temperature yesterday: 84 °F (at 3:00 PM)
Minimum temperature yesterday: 46 °F (at 4:00 AM)
Average temperature yesterday: 66 °F

Past Weeks' High & Low Weather Summary

 TemperatureHumidityPressure
High84 °F (May 21, 3:00 PM)100% (May 17, 7:01 AM)30.22 "Hg (May 17, 7:01 AM)
Low32 °F (May 8, 6:00 AM)13% (May 8, 4:00 PM)29.68 "Hg (May 15, 6:00 PM)
Average59 °F54%29.94 "Hg
* Reported May 7 10:00 AM — May 22 10:00 AM, Kelowna, Weather by CustomWeather, © 2015

Note: Actual official high and low records may vary slightly from our data, if they occured in-between our weather recording intervals... More about our weather records

Advertising

Kelowna weather history for previous 24 hours

 ConditionsComfort  
Time TempWeatherWind HumidityBarometerVisibility
10:00 AM
Fri, May 22
70 °FPassing clouds.3 mph40%29.86 "Hg9 mi
9:00 AM66 °FPartly sunny.7 mph52%29.87 "Hg9 mi
8:00 AM64 °FPartly sunny.5 mph56%29.86 "Hg9 mi
7:00 AM59 °FPartly sunny.3 mph72%29.86 "Hg9 mi
6:00 AM52 °FClear.3 mph77%29.85 "Hg9 mi
5:00 AM50 °FClear.3 mph82%29.84 "Hg9 mi
4:00 AM52 °FClear.2 mph77%29.83 "Hg9 mi
3:00 AM55 °FPassing clouds.3 mph67%29.82 "Hg9 mi
2:00 AM59 °FClear.No wind59%29.80 "Hg9 mi
1:00 AM61 °FClear.3 mph59%29.80 "Hg9 mi
12:00 AM68 °FPassing clouds.6 mph40%29.78 "Hg9 mi
11:00 PM
Thu, May 21
70 °FOvercast.6 mph38%29.77 "Hg9 mi
10:00 PM72 °FOvercast.5 mph36%29.75 "Hg9 mi
9:00 PM66 °FPartly sunny.No wind49%29.74 "Hg9 mi
8:00 PM73 °FPartly sunny.2 mph36%29.72 "Hg9 mi
7:00 PM81 °FSunny.5 mph28%29.72 "Hg9 mi
6:00 PM84 °FSunny.10 mph19%29.71 "Hg9 mi
5:00 PM84 °FSunny.8 mph19%29.74 "Hg9 mi
4:00 PM84 °FSunny.9 mph19%29.76 "Hg9 mi
3:00 PM84 °FSunny.7 mph16%29.78 "Hg9 mi
2:00 PM79 °FSunny.2 mph28%29.81 "Hg9 mi
1:00 PM77 °FSunny.5 mph28%29.83 "Hg9 mi
12:00 PM75 °FSunny.5 mph27%29.86 "Hg9 mi
11:00 AM72 °FPassing clouds.3 mph31%29.88 "Hg9 mi
Weather by CustomWeather, © 2015

See weather overviewHow to use our weather pages